contact:dominique.lefevre@mio.osupytheas.fr, maurice.libes@osupytheas.fr, didier.mallarino@osupytheas.fr
Project:EMSO http://www.emso-fr.org/EMSO-France
Depth: 2436.0 m
Title:EMSO Ligure Ouest : Data MII capteur MICROCAT
DateTime_Computer,Latitude,Longitude,Temperature,Conductivity,Pressure,DateTime_Instrument
DateTime_Computer,Latitude,Longitude,degC,S m-1,dbar,DateTime_Instrument
2023-12-01T00:02:14Z,42.805,6.029,13.3039,4.60113,2470.754,2023-12-01T02:04:42Z
2023-12-01T00:05:17Z,42.805,6.029,13.3038,4.60113,2470.74,2023-12-01T02:07:46Z
2023-12-01T00:08:20Z,42.805,6.029,13.3042,4.60114,2470.763,2023-12-01T02:10:49Z
2023-12-01T00:11:23Z,42.805,6.029,13.3037,4.60114,2470.763,2023-12-01T02:13:52Z
2023-12-01T00:14:26Z,42.805,6.029,13.3040,4.60114,2470.763,2023-12-01T02:16:55Z
2023-12-01T00:17:29Z,42.805,6.029,13.3038,4.60114,2470.754,2023-12-01T02:19:58Z
2023-12-01T00:20:32Z,42.805,6.029,13.3036,4.60113,2470.777,2023-12-01T02:23:01Z
2023-12-01T00:23:35Z,42.805,6.029,13.3042,4.60114,2470.763,2023-12-01T02:26:04Z
2023-12-01T00:26:38Z,42.805,6.029,13.3041,4.60113,2470.763,2023-12-01T02:29:07Z
2023-12-01T00:29:42Z,42.805,6.029,13.3039,4.60114,2470.763,2023-12-01T02:32:10Z
2023-12-01T00:32:45Z,42.805,6.029,13.3036,4.60114,2470.777,2023-12-01T02:35:13Z
2023-12-01T00:35:48Z,42.805,6.029,13.3041,4.60115,2470.763,2023-12-01T02:38:16Z
2023-12-01T00:38:51Z,42.805,6.029,13.3037,4.60114,2470.703,2023-12-01T02:41:19Z
2023-12-01T00:41:54Z,42.805,6.029,13.3037,4.60114,2470.763,2023-12-01T02:44:22Z
2023-12-01T00:44:57Z,42.805,6.029,13.3038,4.60114,2470.763,2023-12-01T02:47:25Z
2023-12-01T00:48:00Z,42.805,6.029,13.3036,4.60112,2470.754,2023-12-01T02:50:29Z
2023-12-01T00:51:03Z,42.805,6.029,13.3039,4.60111,2470.74,2023-12-01T02:53:32Z
2023-12-01T00:54:06Z,42.805,6.029,13.3044,4.60112,2470.754,2023-12-01T02:56:35Z
2023-12-01T00:57:09Z,42.805,6.029,13.3041,4.60113,2470.74,2023-12-01T02:59:38Z
2023-12-01T01:00:12Z,42.805,6.029,13.3045,4.60114,2470.74,2023-12-01T03:02:41Z
2023-12-01T01:03:15Z,42.805,6.029,13.3036,4.60112,2470.74,2023-12-01T03:05:44Z
2023-12-01T01:06:19Z,42.805,6.029,13.3039,4.60112,2470.754,2023-12-01T03:08:47Z
2023-12-01T01:09:22Z,42.805,6.029,13.3039,4.60113,2470.693,2023-12-01T03:11:50Z
2023-12-01T01:12:25Z,42.805,6.029,13.3038,4.60114,2470.74,2023-12-01T03:14:53Z
2023-12-01T01:15:28Z,42.805,6.029,13.3040,4.60114,2470.74,2023-12-01T03:17:56Z
2023-12-01T01:18:31Z,42.805,6.029,13.3041,4.60112,2470.74,2023-12-01T03:20:59Z
2023-12-01T01:21:34Z,42.805,6.029,13.3039,4.60112,2470.763,2023-12-01T03:24:02Z
2023-12-01T01:24:37Z,42.805,6.029,13.3043,4.60112,2470.754,2023-12-01T03:27:06Z
2023-12-01T01:27:40Z,42.805,6.029,13.3039,4.60112,2470.754,2023-12-01T03:30:09Z
2023-12-01T01:30:43Z,42.805,6.029,13.3037,4.60112,2470.73,2023-12-01T03:33:12Z
2023-12-01T01:33:46Z,42.805,6.029,13.3037,4.60113,2470.717,2023-12-01T03:36:15Z
2023-12-01T01:36:49Z,42.805,6.029,13.3042,4.60112,2470.73,2023-12-01T03:39:18Z
2023-12-01T01:39:52Z,42.805,6.029,13.3036,4.60112,2470.754,2023-12-01T03:42:21Z
2023-12-01T01:42:55Z,42.805,6.029,13.3038,4.60112,2470.717,2023-12-01T03:45:24Z
2023-12-01T01:45:59Z,42.805,6.029,13.3040,4.60113,2470.717,2023-12-01T03:48:27Z
2023-12-01T01:49:02Z,42.805,6.029,13.3035,4.60112,2470.763,2023-12-01T03:51:30Z
2023-12-01T01:52:05Z,42.805,6.029,13.3036,4.60112,2470.693,2023-12-01T03:54:33Z
2023-12-01T01:55:08Z,42.805,6.029,13.3041,4.60111,2470.74,2023-12-01T03:57:36Z
2023-12-01T01:58:11Z,42.805,6.029,13.3036,4.60110,2470.693,2023-12-01T04:00:39Z
2023-12-01T02:01:14Z,42.805,6.029,13.3036,4.60117,2470.717,2023-12-01T04:03:43Z
2023-12-01T02:04:17Z,42.805,6.029,13.3037,4.60110,2470.717,2023-12-01T04:06:46Z
2023-12-01T02:07:20Z,42.805,6.029,13.3039,4.60112,2470.74,2023-12-01T04:09:49Z
2023-12-01T02:10:23Z,42.805,6.029,13.3037,4.60110,2470.73,2023-12-01T04:12:52Z
2023-12-01T02:13:26Z,42.805,6.029,13.3036,4.60110,2470.754,2023-12-01T04:15:55Z
2023-12-01T02:16:29Z,42.805,6.029,13.3036,4.60110,2470.74,2023-12-01T04:18:58Z
2023-12-01T02:19:32Z,42.805,6.029,13.3036,4.60110,2470.74,2023-12-01T04:22:01Z
2023-12-01T02:22:35Z,42.805,6.029,13.3036,4.60110,2470.754,2023-12-01T04:25:04Z
2023-12-01T02:25:39Z,42.805,6.029,13.3036,4.60110,2470.693,2023-12-01T04:28:07Z
2023-12-01T02:28:42Z,42.805,6.029,13.3037,4.60110,2470.73,2023-12-01T04:31:10Z
2023-12-01T02:31:45Z,42.805,6.029,13.3037,4.60109,2470.693,2023-12-01T04:34:13Z
2023-12-01T02:34:48Z,42.805,6.029,13.3039,4.60110,2470.73,2023-12-01T04:37:16Z
2023-12-01T02:37:51Z,42.805,6.029,13.3036,4.60110,2470.74,2023-12-01T04:40:19Z
2023-12-01T02:40:54Z,42.805,6.029,13.3037,4.60110,2470.73,2023-12-01T04:43:22Z
2023-12-01T02:43:57Z,42.805,6.029,13.3039,4.60109,2470.754,2023-12-01T04:46:26Z
2023-12-01T02:47:00Z,42.805,6.029,13.3038,4.60110,2470.73,2023-12-01T04:49:29Z
2023-12-01T02:50:03Z,42.805,6.029,13.3035,4.60110,2470.717,2023-12-01T04:52:32Z
2023-12-01T02:53:06Z,42.805,6.029,13.3036,4.60110,2470.717,2023-12-01T04:55:35Z
2023-12-01T02:56:09Z,42.805,6.029,13.3039,4.60110,2470.717,2023-12-01T04:58:38Z
2023-12-01T02:59:12Z,42.805,6.029,13.3037,4.60110,2470.717,2023-12-01T05:01:41Z
2023-12-01T03:02:15Z,42.805,6.029,13.3038,4.60109,2470.717,2023-12-01T05:04:44Z
2023-12-01T03:05:19Z,42.805,6.029,13.3039,4.60111,2470.73,2023-12-01T05:07:47Z
2023-12-01T03:08:22Z,42.805,6.029,13.3039,4.60110,2470.717,2023-12-01T05:10:50Z
2023-12-01T03:11:25Z,42.805,6.029,13.3038,4.60110,2470.717,2023-12-01T05:13:53Z
2023-12-01T03:14:28Z,42.805,6.029,13.3037,4.60110,2470.707,2023-12-01T05:16:56Z
2023-12-01T03:17:31Z,42.805,6.029,13.3037,4.60110,2470.73,2023-12-01T05:19:59Z
2023-12-01T03:20:34Z,42.805,6.029,13.3036,4.60110,2470.693,2023-12-01T05:23:02Z
2023-12-01T03:23:37Z,42.805,6.029,13.3036,4.60111,2470.707,2023-12-01T05:26:06Z
2023-12-01T03:26:40Z,42.805,6.029,13.3038,4.60110,2470.754,2023-12-01T05:29:09Z
2023-12-01T03:29:43Z,42.805,6.029,13.3037,4.60110,2470.74,2023-12-01T05:32:12Z
2023-12-01T03:32:46Z,42.805,6.029,13.3037,4.60113,2470.74,2023-12-01T05:35:15Z
2023-12-01T03:35:49Z,42.805,6.029,13.3041,4.60110,2470.717,2023-12-01T05:38:18Z
2023-12-01T03:38:52Z,42.805,6.029,13.3034,4.60110,2470.717,2023-12-01T05:41:21Z
2023-12-01T03:41:56Z,42.805,6.029,13.3037,4.60111,2470.717,2023-12-01T05:44:24Z
2023-12-01T03:44:59Z,42.805,6.029,13.3038,4.60111,2470.73,2023-12-01T05:47:27Z
2023-12-01T03:48:02Z,42.805,6.029,13.3036,4.60111,2470.693,2023-12-01T05:50:30Z
2023-12-01T03:51:05Z,42.805,6.029,13.3038,4.60111,2470.717,2023-12-01T05:53:33Z
2023-12-01T03:54:08Z,42.805,6.029,13.3036,4.60110,2470.693,2023-12-01T05:56:36Z
2023-12-01T03:57:11Z,42.805,6.029,13.3043,4.60110,2470.717,2023-12-01T05:59:39Z
2023-12-01T04:00:14Z,42.805,6.029,13.3036,4.60112,2470.717,2023-12-01T06:02:43Z
2023-12-01T04:03:17Z,42.805,6.029,13.3037,4.60110,2470.707,2023-12-01T06:05:46Z
2023-12-01T04:06:20Z,42.805,6.029,13.3037,4.60111,2470.707,2023-12-01T06:08:49Z
2023-12-01T04:09:23Z,42.805,6.029,13.3038,4.60110,2470.67,2023-12-01T06:11:52Z
2023-12-01T04:12:26Z,42.805,6.029,13.3041,4.60110,2470.754,2023-12-01T06:14:55Z
2023-12-01T04:15:29Z,42.805,6.029,13.3036,4.60112,2470.679,2023-12-01T06:17:58Z
2023-12-01T04:18:32Z,42.805,6.029,13.3039,4.60111,2470.707,2023-12-01T06:21:01Z
2023-12-01T04:21:36Z,42.805,6.029,13.3036,4.60110,2470.717,2023-12-01T06:24:04Z
2023-12-01T04:24:39Z,42.805,6.029,13.3041,4.60113,2470.717,2023-12-01T06:27:07Z
2023-12-01T04:27:42Z,42.805,6.029,13.3041,4.60111,2470.693,2023-12-01T06:30:10Z
2023-12-01T04:30:45Z,42.805,6.029,13.3042,4.60112,2470.693,2023-12-01T06:33:13Z
2023-12-01T04:33:48Z,42.805,6.029,13.3041,4.60112,2470.693,2023-12-01T06:36:16Z
2023-12-01T04:36:51Z,42.805,6.029,13.3041,4.60112,2470.717,2023-12-01T06:39:19Z
2023-12-01T04:39:54Z,42.805,6.029,13.3039,4.60111,2470.717,2023-12-01T06:42:23Z
2023-12-01T04:42:57Z,42.805,6.029,13.3041,4.60112,2470.73,2023-12-01T06:45:26Z
2023-12-01T04:46:00Z,42.805,6.029,13.3045,4.60115,2470.763,2023-12-01T06:48:29Z
2023-12-01T04:49:03Z,42.805,6.029,13.3043,4.60114,2470.717,2023-12-01T06:51:32Z
2023-12-01T04:52:06Z,42.805,6.029,13.3042,4.60113,2470.717,2023-12-01T06:54:35Z
2023-12-01T04:55:09Z,42.805,6.029,13.3041,4.60113,2470.74,2023-12-01T06:57:38Z
2023-12-01T04:58:12Z,42.805,6.029,13.3042,4.60113,2470.717,2023-12-01T07:00:41Z
2023-12-01T05:01:16Z,42.805,6.029,13.3041,4.60113,2470.74,2023-12-01T07:03:44Z
2023-12-01T05:04:19Z,42.805,6.029,13.3043,4.60112,2470.74,2023-12-01T07:06:47Z
2023-12-01T05:07:22Z,42.805,6.029,13.3043,4.60112,2470.717,2023-12-01T07:09:50Z
2023-12-01T05:10:25Z,42.805,6.029,13.3041,4.60114,2470.717,2023-12-01T07:12:53Z
2023-12-01T05:13:28Z,42.805,6.029,13.3040,4.60113,2470.763,2023-12-01T07:15:56Z
2023-12-01T05:16:31Z,42.805,6.029,13.3048,4.60114,2470.74,2023-12-01T07:18:59Z
2023-12-01T05:19:34Z,42.805,6.029,13.3041,4.60113,2470.763,2023-12-01T07:22:03Z
2023-12-01T05:22:37Z,42.805,6.029,13.3041,4.60114,2470.726,2023-12-01T07:25:06Z
2023-12-01T05:25:40Z,42.805,6.029,13.3039,4.60114,2470.763,2023-12-01T07:28:09Z
2023-12-01T05:28:43Z,42.805,6.029,13.3039,4.60114,2470.74,2023-12-01T07:31:12Z
2023-12-01T05:31:46Z,42.805,6.029,13.3041,4.60114,2470.763,2023-12-01T07:34:15Z
2023-12-01T05:34:49Z,42.805,6.029,13.3044,4.60114,2470.777,2023-12-01T07:37:18Z
2023-12-01T05:37:52Z,42.805,6.029,13.3041,4.60114,2470.763,2023-12-01T07:40:21Z
2023-12-01T05:40:56Z,42.805,6.029,13.3041,4.60114,2470.777,2023-12-01T07:43:24Z
2023-12-01T05:43:59Z,42.805,6.029,13.3040,4.60114,2470.763,2023-12-01T07:46:27Z
2023-12-01T05:47:02Z,42.805,6.029,13.3039,4.60114,2470.763,2023-12-01T07:49:30Z
2023-12-01T05:50:05Z,42.805,6.029,13.3041,4.60114,2470.777,2023-12-01T07:52:33Z
2023-12-01T05:53:08Z,42.805,6.029,13.3040,4.60114,2470.763,2023-12-01T07:55:36Z
2023-12-01T05:56:11Z,42.805,6.029,13.3040,4.60114,2470.787,2023-12-01T07:58:40Z
2023-12-01T05:59:14Z,42.805,6.029,13.3041,4.60114,2470.787,2023-12-01T08:01:43Z
2023-12-01T06:02:17Z,42.805,6.029,13.3042,4.60114,2470.763,2023-12-01T08:04:46Z
2023-12-01T06:05:20Z,42.805,6.029,13.3039,4.60115,2470.8,2023-12-01T08:07:49Z
2023-12-01T06:08:23Z,42.805,6.029,13.3046,4.60114,2470.787,2023-12-01T08:10:52Z
2023-12-01T06:11:26Z,42.805,6.029,13.3045,4.60115,2470.796,2023-12-01T08:13:55Z
2023-12-01T06:14:29Z,42.805,6.029,13.3044,4.60114,2470.787,2023-12-01T08:16:58Z
2023-12-01T06:17:33Z,42.805,6.029,13.3038,4.60114,2470.787,2023-12-01T08:20:01Z
2023-12-01T06:20:36Z,42.805,6.029,13.3040,4.60116,2470.787,2023-12-01T08:23:04Z
2023-12-01T06:23:39Z,42.805,6.029,13.3039,4.60114,2470.81,2023-12-01T08:26:07Z
2023-12-01T06:26:42Z,42.805,6.029,13.3041,4.60114,2470.847,2023-12-01T08:29:10Z
2023-12-01T06:29:45Z,42.805,6.029,13.3039,4.60114,2470.833,2023-12-01T08:32:13Z
2023-12-01T06:32:48Z,42.805,6.029,13.3042,4.60115,2470.8,2023-12-01T08:35:16Z
2023-12-01T06:35:51Z,42.805,6.029,13.3043,4.60114,2470.833,2023-12-01T08:38:20Z
2023-12-01T06:38:54Z,42.805,6.029,13.3041,4.60114,2470.857,2023-12-01T08:41:23Z
2023-12-01T06:41:57Z,42.805,6.029,13.3039,4.60115,2470.833,2023-12-01T08:44:26Z
2023-12-01T06:45:00Z,42.805,6.029,13.3039,4.60114,2470.833,2023-12-01T08:47:29Z
2023-12-01T06:48:03Z,42.805,6.029,13.3044,4.60116,2470.857,2023-12-01T08:50:32Z
2023-12-01T06:51:06Z,42.805,6.029,13.3041,4.60114,2470.833,2023-12-01T08:53:35Z
2023-12-01T06:54:09Z,42.805,6.029,13.3043,4.60114,2470.847,2023-12-01T08:56:38Z
2023-12-01T06:57:13Z,42.805,6.029,13.3040,4.60114,2470.81,2023-12-01T08:59:41Z
2023-12-01T07:00:16Z,42.805,6.029,13.3043,4.60117,2470.857,2023-12-01T09:02:44Z
2023-12-01T07:03:19Z,42.805,6.029,13.3042,4.60116,2470.833,2023-12-01T09:05:47Z
2023-12-01T07:06:22Z,42.805,6.029,13.3044,4.60114,2470.847,2023-12-01T09:08:50Z
2023-12-01T07:09:25Z,42.805,6.029,13.3045,4.60114,2470.857,2023-12-01T09:11:53Z
2023-12-01T07:12:28Z,42.805,6.029,13.3039,4.60115,2470.833,2023-12-01T09:14:56Z
2023-12-01T07:15:31Z,42.805,6.029,13.3045,4.60114,2470.88,2023-12-01T09:18:00Z
2023-12-01T07:18:34Z,42.805,6.029,13.3041,4.60115,2470.871,2023-12-01T09:21:03Z
2023-12-01T07:21:37Z,42.805,6.029,13.3043,4.60114,2470.88,2023-12-01T09:24:06Z
2023-12-01T07:24:40Z,42.805,6.029,13.3043,4.60114,2470.88,2023-12-01T09:27:09Z
2023-12-01T07:27:43Z,42.805,6.029,13.3042,4.60116,2470.894,2023-12-01T09:30:12Z
2023-12-01T07:30:46Z,42.805,6.029,13.3037,4.60116,2470.894,2023-12-01T09:33:15Z
2023-12-01T07:33:49Z,42.805,6.029,13.3041,4.60115,2470.88,2023-12-01T09:36:18Z
2023-12-01T07:36:53Z,42.805,6.029,13.3048,4.60114,2470.88,2023-12-01T09:39:21Z
2023-12-01T07:39:56Z,42.805,6.029,13.3040,4.60115,2470.917,2023-12-01T09:42:24Z
2023-12-01T07:42:59Z,42.805,6.029,13.3043,4.60117,2470.894,2023-12-01T09:45:27Z
2023-12-01T07:46:02Z,42.805,6.029,13.3042,4.60116,2470.904,2023-12-01T09:48:30Z
2023-12-01T07:49:05Z,42.805,6.029,13.3038,4.60115,2470.917,2023-12-01T09:51:33Z
2023-12-01T07:52:08Z,42.805,6.029,13.3040,4.60116,2470.927,2023-12-01T09:54:36Z
2023-12-01T07:55:11Z,42.805,6.029,13.3041,4.60115,2470.871,2023-12-01T09:57:40Z
2023-12-01T07:58:14Z,42.805,6.029,13.3042,4.60121,2470.904,2023-12-01T10:00:43Z
2023-12-01T08:01:17Z,42.805,6.029,13.3043,4.60115,2470.904,2023-12-01T10:03:46Z
2023-12-01T08:04:20Z,42.805,6.029,13.3043,4.60116,2470.927,2023-12-01T10:06:49Z
2023-12-01T08:07:23Z,42.805,6.029,13.3045,4.60115,2470.904,2023-12-01T10:09:52Z
2023-12-01T08:10:26Z,42.805,6.029,13.3042,4.60116,2470.904,2023-12-01T10:12:55Z
2023-12-01T08:13:29Z,42.805,6.029,13.3043,4.60116,2470.917,2023-12-01T10:15:58Z
2023-12-01T08:16:33Z,42.805,6.029,13.3044,4.60116,2470.94,2023-12-01T10:19:01Z
2023-12-01T08:19:36Z,42.805,6.029,13.3042,4.60116,2470.904,2023-12-01T10:22:04Z
2023-12-01T08:22:39Z,42.805,6.029,13.3043,4.60122,2470.88,2023-12-01T10:25:07Z
2023-12-01T08:25:42Z,42.805,6.029,13.3043,4.60117,2470.904,2023-12-01T10:28:10Z
2023-12-01T08:28:45Z,42.805,6.029,13.3045,4.60117,2470.927,2023-12-01T10:31:13Z
2023-12-01T08:31:48Z,42.805,6.029,13.3043,4.60117,2470.927,2023-12-01T10:34:17Z
2023-12-01T08:34:51Z,42.805,6.029,13.3043,4.60121,2470.913,2023-12-01T10:37:20Z
2023-12-01T08:37:54Z,42.805,6.029,13.3041,4.60117,2470.927,2023-12-01T10:40:23Z
2023-12-01T08:40:57Z,42.805,6.029,13.3041,4.60117,2470.927,2023-12-01T10:43:26Z
2023-12-01T08:44:00Z,42.805,6.029,13.3043,4.60117,2470.936,2023-12-01T10:46:29Z
2023-12-01T08:47:03Z,42.805,6.029,13.3041,4.60116,2470.904,2023-12-01T10:49:32Z
2023-12-01T08:50:06Z,42.805,6.029,13.3040,4.60117,2470.94,2023-12-01T10:52:35Z
2023-12-01T08:53:10Z,42.805,6.029,13.3042,4.60117,2470.913,2023-12-01T10:55:38Z
2023-12-01T08:56:13Z,42.805,6.029,13.3041,4.60126,2470.94,2023-12-01T10:58:41Z
2023-12-01T08:59:16Z,42.805,6.029,13.3043,4.60122,2470.94,2023-12-01T11:01:44Z
2023-12-01T09:02:19Z,42.805,6.029,13.3041,4.60117,2470.95,2023-12-01T11:04:47Z
2023-12-01T09:05:22Z,42.805,6.029,13.3043,4.60120,2470.927,2023-12-01T11:07:50Z
2023-12-01T09:08:25Z,42.805,6.029,13.3044,4.60117,2470.927,2023-12-01T11:10:54Z
2023-12-01T09:11:28Z,42.805,6.029,13.3045,4.60118,2470.95,2023-12-01T11:13:57Z
2023-12-01T09:14:31Z,42.805,6.029,13.3046,4.60117,2470.94,2023-12-01T11:17:00Z
2023-12-01T09:17:34Z,42.805,6.029,13.3038,4.60117,2470.927,2023-12-01T11:20:03Z
2023-12-01T09:20:37Z,42.805,6.029,13.3046,4.60119,2470.936,2023-12-01T11:23:06Z
2023-12-01T09:23:40Z,42.805,6.029,13.3044,4.60117,2470.927,2023-12-01T11:26:09Z
2023-12-01T09:26:43Z,42.805,6.029,13.3044,4.60120,2470.987,2023-12-01T11:29:12Z
2023-12-01T09:29:47Z,42.805,6.029,13.3046,4.60120,2470.95,2023-12-01T11:32:15Z
2023-12-01T09:32:50Z,42.805,6.029,13.3041,4.60121,2470.95,2023-12-01T11:35:18Z
2023-12-01T09:35:53Z,42.805,6.029,13.3045,4.60119,2470.973,2023-12-01T11:38:21Z
2023-12-01T09:38:56Z,42.805,6.029,13.3044,4.60119,2470.927,2023-12-01T11:41:24Z
2023-12-01T09:41:59Z,42.805,6.029,13.3046,4.60119,2470.95,2023-12-01T11:44:27Z
2023-12-01T09:45:02Z,42.805,6.029,13.3043,4.60120,2470.95,2023-12-01T11:47:31Z
2023-12-01T09:48:05Z,42.805,6.029,13.3041,4.60119,2470.95,2023-12-01T11:50:34Z
2023-12-01T09:51:08Z,42.805,6.029,13.3043,4.60120,2470.913,2023-12-01T11:53:37Z
2023-12-01T09:54:11Z,42.805,6.029,13.3043,4.60120,2470.94,2023-12-01T11:56:40Z
2023-12-01T09:57:14Z,42.805,6.029,13.3045,4.60120,2470.987,2023-12-01T11:59:43Z
2023-12-01T10:00:17Z,42.805,6.029,13.3049,4.60121,2470.964,2023-12-01T12:02:46Z
2023-12-01T10:03:20Z,42.805,6.029,13.3048,4.60120,2470.95,2023-12-01T12:05:49Z
2023-12-01T10:06:24Z,42.805,6.029,13.3043,4.60121,2470.95,2023-12-01T12:08:52Z
2023-12-01T10:09:27Z,42.805,6.029,13.3050,4.60127,2470.973,2023-12-01T12:11:55Z
2023-12-01T10:12:30Z,42.805,6.029,13.3054,4.60120,2470.987,2023-12-01T12:14:58Z
2023-12-01T10:15:33Z,42.805,6.029,13.3048,4.60122,2470.997,2023-12-01T12:18:01Z
2023-12-01T10:18:36Z,42.805,6.029,13.3046,4.60122,2470.95,2023-12-01T12:21:04Z
2023-12-01T10:21:39Z,42.805,6.029,13.3047,4.60120,2470.95,2023-12-01T12:24:08Z
2023-12-01T10:24:42Z,42.805,6.029,13.3049,4.60120,2470.973,2023-12-01T12:27:11Z
2023-12-01T10:27:45Z,42.805,6.029,13.3044,4.60120,2470.927,2023-12-01T12:30:14Z
2023-12-01T10:30:48Z,42.805,6.029,13.3046,4.60122,2470.927,2023-12-01T12:33:17Z
2023-12-01T10:33:51Z,42.805,6.029,13.3048,4.60138,2470.94,2023-12-01T12:36:20Z
2023-12-01T10:36:54Z,42.805,6.029,13.3046,4.60131,2470.95,2023-12-01T12:39:23Z
2023-12-01T10:39:57Z,42.805,6.029,13.3049,4.60121,2470.95,2023-12-01T12:42:26Z
2023-12-01T10:43:01Z,42.805,6.029,13.3046,4.60125,2470.927,2023-12-01T12:45:29Z
2023-12-01T10:46:04Z,42.805,6.029,13.3046,4.60120,2470.95,2023-12-01T12:48:32Z
2023-12-01T10:49:07Z,42.805,6.029,13.3046,4.60124,2470.904,2023-12-01T12:51:35Z
2023-12-01T10:52:10Z,42.805,6.029,13.3051,4.60121,2470.927,2023-12-01T12:54:38Z
2023-12-01T10:55:13Z,42.805,6.029,13.3048,4.60125,2470.95,2023-12-01T12:57:41Z
2023-12-01T10:58:16Z,42.805,6.029,13.3047,4.60127,2470.95,2023-12-01T13:00:45Z
2023-12-01T11:01:19Z,42.805,6.029,13.3044,4.60125,2470.927,2023-12-01T13:03:48Z
2023-12-01T11:04:22Z,42.805,6.029,13.3046,4.60121,2470.927,2023-12-01T13:06:51Z
2023-12-01T11:07:25Z,42.805,6.029,13.3043,4.60128,2470.927,2023-12-01T13:09:54Z
2023-12-01T11:10:28Z,42.805,6.029,13.3043,4.60122,2470.927,2023-12-01T13:12:57Z
2023-12-01T11:13:31Z,42.805,6.029,13.3042,4.60122,2470.94,2023-12-01T13:16:00Z
2023-12-01T11:16:34Z,42.805,6.029,13.3045,4.60125,2470.95,2023-12-01T13:19:03Z
2023-12-01T11:19:38Z,42.805,6.029,13.3048,4.60126,2470.964,2023-12-01T13:22:06Z
2023-12-01T11:22:41Z,42.805,6.029,13.3043,4.60122,2470.95,2023-12-01T13:25:09Z
2023-12-01T11:25:44Z,42.805,6.029,13.3046,4.60127,2470.95,2023-12-01T13:28:12Z
2023-12-01T11:28:47Z,42.805,6.029,13.3045,4.60122,2470.927,2023-12-01T13:31:15Z
2023-12-01T11:31:51Z,42.805,6.029,13.3044,4.60121,2470.94,2023-12-01T13:34:20Z
2023-12-01T11:34:54Z,42.805,6.029,13.3045,4.60122,2470.927,2023-12-01T13:37:23Z
2023-12-01T11:37:57Z,42.805,6.029,13.3046,4.60122,2470.95,2023-12-01T13:40:26Z
2023-12-01T11:41:00Z,42.805,6.029,13.3045,4.60125,2470.95,2023-12-01T13:43:29Z
2023-12-01T11:44:04Z,42.805,6.029,13.3042,4.60122,2470.95,2023-12-01T13:46:32Z
2023-12-01T11:47:07Z,42.805,6.029,13.3046,4.60125,2470.904,2023-12-01T13:49:35Z
2023-12-01T11:50:10Z,42.805,6.029,13.3043,4.60125,2470.917,2023-12-01T13:52:38Z
2023-12-01T11:53:13Z,42.805,6.029,13.3041,4.60122,2470.894,2023-12-01T13:55:41Z
2023-12-01T11:56:16Z,42.805,6.029,13.3044,4.60120,2470.904,2023-12-01T13:58:44Z
2023-12-01T11:59:19Z,42.805,6.029,13.3046,4.60121,2470.89,2023-12-01T14:01:48Z
2023-12-01T12:02:22Z,42.805,6.029,13.3043,4.60122,2470.964,2023-12-01T14:04:51Z
2023-12-01T12:05:25Z,42.805,6.029,13.3046,4.60120,2470.927,2023-12-01T14:07:54Z
2023-12-01T12:08:28Z,42.805,6.029,13.3048,4.60120,2470.904,2023-12-01T14:10:57Z
2023-12-01T12:11:31Z,42.805,6.029,13.3044,4.60124,2470.88,2023-12-01T14:14:00Z
2023-12-01T12:14:34Z,42.805,6.029,13.3047,4.60124,2470.904,2023-12-01T14:17:03Z
2023-12-01T12:17:37Z,42.805,6.029,13.3042,4.60125,2470.927,2023-12-01T14:20:06Z
2023-12-01T12:20:41Z,42.805,6.029,13.3043,4.60121,2470.857,2023-12-01T14:23:09Z
2023-12-01T12:23:44Z,42.805,6.029,13.3041,4.60127,2470.917,2023-12-01T14:26:12Z
2023-12-01T12:26:47Z,42.805,6.029,13.3044,4.60123,2470.917,2023-12-01T14:29:15Z
2023-12-01T12:29:50Z,42.805,6.029,13.3047,4.60122,2470.904,2023-12-01T14:32:18Z
2023-12-01T12:32:53Z,42.805,6.029,13.3042,4.60123,2470.904,2023-12-01T14:35:21Z
2023-12-01T12:35:56Z,42.805,6.029,13.3044,4.60120,2470.88,2023-12-01T14:38:25Z
2023-12-01T12:38:59Z,42.805,6.029,13.3048,4.60121,2470.88,2023-12-01T14:41:28Z
2023-12-01T12:42:02Z,42.805,6.029,13.3046,4.60125,2470.904,2023-12-01T14:44:31Z
2023-12-01T12:45:05Z,42.805,6.029,13.3047,4.60122,2470.904,2023-12-01T14:47:34Z
2023-12-01T12:48:08Z,42.805,6.029,13.3046,4.60123,2470.89,2023-12-01T14:50:37Z
2023-12-01T12:51:11Z,42.805,6.029,13.3045,4.60122,2470.88,2023-12-01T14:53:40Z
2023-12-01T12:54:14Z,42.805,6.029,13.3046,4.60121,2470.904,2023-12-01T14:56:43Z
2023-12-01T12:57:17Z,42.805,6.029,13.3044,4.60122,2470.88,2023-12-01T14:59:46Z
2023-12-01T13:00:21Z,42.805,6.029,13.3045,4.60122,2470.857,2023-12-01T15:02:49Z
2023-12-01T13:03:24Z,42.805,6.029,13.3048,4.60119,2470.904,2023-12-01T15:05:52Z
2023-12-01T13:06:27Z,42.805,6.029,13.3043,4.60125,2470.857,2023-12-01T15:08:55Z
2023-12-01T13:09:30Z,42.805,6.029,13.3043,4.60120,2470.894,2023-12-01T15:11:58Z
2023-12-01T13:12:33Z,42.805,6.029,13.3041,4.60125,2470.931,2023-12-01T15:15:01Z
2023-12-01T13:15:36Z,42.805,6.029,13.3044,4.60124,2470.857,2023-12-01T15:18:05Z
2023-12-01T13:18:39Z,42.805,6.029,13.3041,4.60122,2470.88,2023-12-01T15:21:08Z
2023-12-01T13:21:42Z,42.805,6.029,13.3040,4.60119,2470.88,2023-12-01T15:24:11Z
2023-12-01T13:24:45Z,42.805,6.029,13.3044,4.60119,2470.88,2023-12-01T15:27:14Z
2023-12-01T13:27:48Z,42.805,6.029,13.3044,4.60122,2470.871,2023-12-01T15:30:17Z
2023-12-01T13:30:50Z,42.805,6.029,13.3043,4.60122,2470.871,2023-12-01T15:33:19Z
2023-12-01T13:33:53Z,42.805,6.029,13.3043,4.60122,2470.88,2023-12-01T15:36:22Z
2023-12-01T13:36:56Z,42.805,6.029,13.3043,4.60120,2470.857,2023-12-01T15:39:25Z
2023-12-01T13:40:00Z,42.805,6.029,13.3045,4.60121,2470.871,2023-12-01T15:42:28Z
2023-12-01T13:43:03Z,42.805,6.029,13.3043,4.60126,2470.88,2023-12-01T15:45:31Z
2023-12-01T13:46:06Z,42.805,6.029,13.3048,4.60122,2470.833,2023-12-01T15:48:34Z
2023-12-01T13:49:09Z,42.805,6.029,13.3047,4.60121,2470.857,2023-12-01T15:51:37Z
2023-12-01T13:52:12Z,42.805,6.029,13.3043,4.60120,2470.88,2023-12-01T15:54:41Z
2023-12-01T13:55:15Z,42.805,6.029,13.3043,4.60122,2470.847,2023-12-01T15:57:44Z
2023-12-01T13:58:18Z,42.805,6.029,13.3045,4.60122,2470.857,2023-12-01T16:00:47Z
2023-12-01T14:01:21Z,42.805,6.029,13.3042,4.60120,2470.871,2023-12-01T16:03:50Z
2023-12-01T14:04:24Z,42.805,6.029,13.3046,4.60120,2470.847,2023-12-01T16:06:53Z
2023-12-01T14:07:27Z,42.805,6.029,13.3044,4.60119,2470.857,2023-12-01T16:09:56Z
2023-12-01T14:10:30Z,42.805,6.029,13.3044,4.60119,2470.847,2023-12-01T16:12:59Z
2023-12-01T14:13:33Z,42.805,6.029,13.3043,4.60119,2470.833,2023-12-01T16:16:02Z
2023-12-01T14:16:37Z,42.805,6.029,13.3044,4.60119,2470.833,2023-12-01T16:19:05Z
2023-12-01T14:19:40Z,42.805,6.029,13.3045,4.60119,2470.871,2023-12-01T16:22:08Z
2023-12-01T14:22:43Z,42.805,6.029,13.3041,4.60119,2470.847,2023-12-01T16:25:11Z
2023-12-01T14:25:46Z,42.805,6.029,13.3041,4.60117,2470.847,2023-12-01T16:28:14Z
2023-12-01T14:28:49Z,42.805,6.029,13.3042,4.60117,2470.871,2023-12-01T16:31:17Z
2023-12-01T14:31:52Z,42.805,6.029,13.3042,4.60120,2470.833,2023-12-01T16:34:21Z
2023-12-01T14:34:55Z,42.805,6.029,13.3042,4.60120,2470.871,2023-12-01T16:37:24Z
2023-12-01T14:37:58Z,42.805,6.029,13.3045,4.60119,2470.857,2023-12-01T16:40:27Z
2023-12-01T14:41:01Z,42.805,6.029,13.3044,4.60119,2470.824,2023-12-01T16:43:30Z
2023-12-01T14:44:04Z,42.805,6.029,13.3044,4.60117,2470.824,2023-12-01T16:46:33Z
2023-12-01T14:47:07Z,42.805,6.029,13.3047,4.60119,2470.833,2023-12-01T16:49:36Z
2023-12-01T14:50:10Z,42.805,6.029,13.3042,4.60118,2470.871,2023-12-01T16:52:39Z
2023-12-01T14:53:14Z,42.805,6.029,13.3041,4.60122,2470.833,2023-12-01T16:55:42Z
2023-12-01T14:56:17Z,42.805,6.029,13.3041,4.60117,2470.833,2023-12-01T16:58:45Z
2023-12-01T14:59:20Z,42.805,6.029,13.3044,4.60119,2470.833,2023-12-01T17:01:48Z
2023-12-01T15:02:23Z,42.805,6.029,13.3043,4.60116,2470.847,2023-12-01T17:04:51Z